Regional Weather Roundup
Issued by NWS

Home | Current Version | Previous Version | Text Only | Print | Product List | Glossary Off
Versions: 1 2 3 4 5 6 7 8 9 10 11 12 13 14 15 16 17 18 19 20 21 22 23 24 25 26 27 28 29 30 31 32 33 34 35 36 37 38 39 40 41 42 43 44 45 46 47 48 49 50

000
ASUS43 KLOT 181758
RWRIL

ILLINOIS REGIONAL WEATHER ROUNDUP
NATIONAL WEATHER SERVICE CHICAGO/ROMEOVILLE IL
100 PM CDT FRI APR 18 2014

NOTE: "FAIR" INDICATES FEW OR NO CLOUDS BELOW 12,000 FEET WITH NO
SIGNIFICANT WEATHER AND/OR OBSTRUCTIONS TO VISIBILITY.

* THESE STATIONS ARE NOT UNDER NWS QUALITY CONTROL. THEY ALSO MAY NOT
  REPORT WEATHER SUCH AS PRECIPITATION OR FOG.

ILZ001-002-007-009-015-016-024-181900-
NORTHWEST ILLINOIS

CITY           SKY/WX    TMP DP  RH WIND       PRES   REMARKS
MOLINE         SUNNY     55  32  41 E3        30.34F
6HR MIN TEMP:  31; 6HR MAX TEMP:  56;

$$

ILZ003-004-008-010-011-017-018-181900-
NORTH CENTRAL ILLINOIS

CITY           SKY/WX    TMP DP  RH WIND       PRES   REMARKS
ROCKFORD       NOT AVBL
$$

ILZ005-006-012>014-019>023-181900-
NORTHEAST ILLINOIS

CITY           SKY/WX    TMP DP  RH WIND       PRES   REMARKS
CHICAGO-OHARE  NOT AVBL
CHICAGO-MIDWAY MOSUNNY   50  35  56 NE12      30.36S
6HR MIN TEMP:  43; 6HR MAX TEMP:  51;

AURORA         SUNNY     58  37  45 VRB7      30.33F
6HR MIN TEMP:  33; 6HR MAX TEMP:  58;

WAUKEGAN       SUNNY     42  31  64 NE12G20   30.36S
6HR MIN TEMP:  36; 6HR MAX TEMP:  45;

DUPAGE AIRPORT SUNNY     57  36  45 N7        30.32F
6HR MIN TEMP:  36; 6HR MAX TEMP:  58;

WHEELING       SUNNY     46  33  60 NE14G22   30.37S
6HR MIN TEMP:  41; 6HR MAX TEMP:  49;

NORTHERLY ISL    N/A     43  35  73 N14         N/A
$$

LMZ740>746-181900-
SOUTHERN LAKE MICHIGAN

STATION/POSITION SKY/WX   TEMP    WIND        PRES    VSBY  WAVE
                          AIR SEA DIR/SP/G                  HT/PER
                          (F)     (DEG/KT/KT) (MB)    (MI)  (FT/S)
WAUKEGAN HARBOR            38      30/ 19/ 22 1029.5R
HARRISON CRIB              37     360/ 15/ 18   N/A
BURNHAM HARBOR             43      10/ 15/ 16   N/A
CALUMET HARBOR             41     340/ 12/ 17 1029.1S
MICHIGAN CITY              39     330/ 10/ 12   N/A
$$

ILZ025>027-034>036-040-047-049-050-058-095>099-181900-
WEST-CENTRAL ILLINOIS

CITY           SKY/WX    TMP DP  RH WIND       PRES   REMARKS
$$

ILZ028>032-037-038-041>044-048-051>054-059>061-181900-
CENTRAL ILLINOIS

CITY           SKY/WX    TMP DP  RH WIND       PRES   REMARKS
PEORIA         NOT AVBL
SPRINGFIELD    SUNNY     65  38  36 MISG      30.32F
6HR MIN TEMP:  40; 6HR MAX TEMP:  65;

TAYLORVILLE    NOT AVBL
$$

ILZ033-039-045-046-055>057-062-063-181900-
EAST-CENTRAL ILLINOIS

CITY           SKY/WX    TMP DP  RH WIND       PRES   REMARKS
$$

ILZ079-100>102-181900-
SOUTHWEST ILLINOIS

CITY           SKY/WX    TMP DP  RH WIND       PRES   REMARKS
ALTON          SUNNY     64  39  39 NE8       30.31F
$$

ILZ064>066-069>071-074>076-080>082-084>086-088>090-092>094-181900-
SOUTH-CENTRAL ILLINOIS

CITY           SKY/WX    TMP DP  RH WIND       PRES   REMARKS
CARBONDALE     SUNNY     68  42  38 CALM      30.28F
6HR MIN TEMP:  47; 6HR MAX TEMP:  69;

MARION         MOSUNNY   70  41  35 W5        30.29F
$$

ILZ067-068-072-073-078-083-087-091-181900-
SOUTHEAST ILLINOIS

CITY           SKY/WX    TMP DP  RH WIND       PRES   REMARKS
$$

ABBREVIATIONS USED IN REMARKS
   TC - TEMPERATURE IN CELSIUS
  WCI - WIND CHILL INDEX
   HX - HEAT INDEX
  VSB - VISIBILITY
$$




USA.gov is the U.S. government's official web portal to all federal, state and local government web resources and services.